Location: Central Falls
(41.8900°N, 71.3929°W)
Time: 12:21:49
(UTC+00:00)

A-11 Canister half - Pass Details

Date: 06 December 2023
Orbit: 1526 x 1682 km, 47.3° (Epoch: 20 February)

Event Time Altitude Azimuth Distance (km) Brightness Sun altitude
Rises 23:37:31 0° 238° (WSW) 4,913 12.7 -25.9°
Reaches altitude 10° 23:40:40 10° 238° (WSW) 3,934 12.0 -26.5°
Maximum altitude 23:50:50 84° 152° (SSE) 1,689 9.0 -28.3°
Enters shadow 23:54:00 51° 69° (ENE) 2,021 9.1 -28.9°
Drops below altitude 10° 00:00:57 10° 65° (ENE) 3,910 - -30.2°
Sets 00:04:03 0° 65° (ENE) 4,883 - -30.8°
